Weather History for KTWM - July, 2013

Change the Weather History Date:

Tuesday, July 9, 2013

  Actual Average Record
Temperature  
Mean Temperature 57 °F -  
Max Temperature 66 °F 74 °F 93 °F (1948)
Min Temperature 48 °F 51 °F 39 °F (1997)
Degree Days  
Heating Degree Days 8    
Growing Degree Days 7 (Base 50)    
Moisture  
Dew Point 52 °F    
Average Humidity 83    
Maximum Humidity 88    
Minimum Humidity 77    
Precipitation  
Precipitation 0.12 in - - ()
Sea Level Pressure  
Sea Level Pressure 29.86 in    
Wind  
Wind Speed 2 mph (ENE)    
Max Wind Speed 10 mph    
Max Gust Speed 17 mph    
Visibility 6 miles    
Events Fog , Rain    
Averages and records for this station are not official NWS values.
T = Trace of Precipitation, MM = Missing Value Source: NWS Daily Summary

Daily Weather History Graph

Daily Weather History Graph

Search for Another Location

Airport or City:

Trip Planner

Search our weather history database for the weather conditions in past years. The results will help you decide how hot, cold, wet, or windy it might be!

Date:

Astronomy

Jul. 09, 2013 Rise Set
Actual Time 5:21 AM CDT 9:02 PM CDT
Civil Twilight 4:42 AM CDT 9:41 PM CDT
Nautical Twilight 3:50 AM CDT 10:33 PM CDT
Astronomical Twilight 2:37 AM CDT 11:45 PM CDT
Moon 6:55 AM CDT (7/9) 9:28 PM CDT (7/9)
Length of Visible Light 16h 58m
Length of Day
15h 40m
New Moon, 2% of the Moon is Illuminated
Jul 9
New Moon
Jul 15
First Quarter
Jul 22
Full
Jul 29
Last Quarter
Aug 6
New

Hourly Weather History & Observations

Time (CDT) Temp. Dew Point Humidity Pressure Visibility Wind Dir Wind Speed Gust Speed Precip Events Conditions
12:13 AM 51.8 °F 46.4 °F 82% 30.00 in 10.0 mi Calm Calm - N/A   Clear
12:33 AM 51.8 °F 46.4 °F 82% 30.00 in 10.0 mi Calm Calm - N/A   Scattered Clouds
12:54 AM 51.8 °F 46.4 °F 82% 29.99 in 10.0 mi Calm Calm - N/A   Scattered Clouds
1:13 AM 51.8 °F 46.4 °F 82% 29.99 in 10.0 mi Calm Calm - N/A   Clear
1:33 AM 51.8 °F 46.4 °F 82% 29.99 in 10.0 mi Calm Calm - N/A   Clear
1:54 AM 50.0 °F 46.4 °F 87% 29.98 in 10.0 mi Calm Calm - N/A   Clear
2:13 AM 50.0 °F 46.4 °F 87% 29.97 in 7.0 mi Calm Calm - N/A   Clear
2:33 AM 50.0 °F 44.6 °F 82% 29.97 in 7.0 mi Calm Calm - N/A   Clear
2:54 AM 50.0 °F 44.6 °F 82% 29.96 in 7.0 mi Calm Calm - N/A   Scattered Clouds
3:13 AM 50.0 °F 44.6 °F 82% 29.96 in 1.2 mi Calm Calm - N/A   Haze
3:33 AM 48.2 °F 42.8 °F 82% 29.96 in 0.5 mi Calm Calm - N/A   Haze
3:54 AM 48.2 °F 42.8 °F 82% 29.95 in 0.8 mi Calm Calm - N/A   Haze
4:13 AM 48.2 °F 44.6 °F 87% 29.95 in 7.0 mi Calm Calm - N/A   Overcast
4:33 AM 48.2 °F 44.6 °F 87% 29.94 in 5.0 mi Calm Calm - N/A   Haze
4:54 AM 50.0 °F 44.6 °F 82% 29.94 in 0.5 mi Calm Calm - N/A   Haze
5:13 AM 50.0 °F 46.4 °F 87% 29.93 in 0.2 mi Calm Calm - N/A Fog Fog
5:33 AM 51.8 °F 46.4 °F 82% 29.92 in 0.2 mi Calm Calm - N/A   Haze
5:54 AM 53.6 °F 48.2 °F 82% 29.93 in 0.2 mi Calm Calm - N/A   Haze
6:13 AM 53.6 °F 48.2 °F 82% 29.92 in 0.2 mi Calm Calm - N/A   Haze
6:33 AM 53.6 °F 48.2 °F 82% 29.92 in 0.5 mi Calm Calm - N/A   Haze
6:54 AM 53.6 °F 48.2 °F 82% 29.92 in 0.2 mi NE 3.5 mph - N/A   Haze
7:13 AM 53.6 °F 48.2 °F 82% 29.91 in 0.2 mi Calm Calm - N/A   Haze
7:33 AM 53.6 °F 50.0 °F 88% 29.89 in 0.2 mi Calm Calm - N/A Fog Fog
7:54 AM 55.4 °F 50.0 °F 82% 29.89 in 0.2 mi Calm Calm - N/A   Haze
8:13 AM 55.4 °F 51.8 °F 88% 29.88 in 0.2 mi Calm Calm - N/A   Haze
8:33 AM 55.4 °F 51.8 °F 88% 29.87 in 0.2 mi ENE 3.5 mph - N/A Fog Fog
8:54 AM 57.2 °F 51.8 °F 82% 29.86 in 0.8 mi East 3.5 mph - N/A   Haze
9:13 AM 57.2 °F 51.8 °F 82% 29.86 in 1.5 mi ESE 4.6 mph - N/A   Haze
9:33 AM 55.4 °F 51.8 °F 88% 29.85 in 1.0 mi East 5.8 mph - N/A   Haze
9:53 AM 55.4 °F 51.8 °F 88% 29.85 in 0.8 mi Calm Calm - N/A   Overcast
10:13 AM 55.4 °F 51.8 °F 88% 29.85 in 0.8 mi Calm Calm - N/A   Haze
10:33 AM 57.2 °F 51.8 °F 82% 29.85 in 0.8 mi ENE 3.5 mph - N/A   Haze
10:54 AM 57.2 °F 51.8 °F 82% 29.85 in 1.2 mi Calm Calm - N/A Rain Light Rain
11:13 AM 57.2 °F 51.8 °F 82% 29.84 in 1.8 mi Calm Calm - N/A Rain Light Rain
11:33 AM 57.2 °F 53.6 °F 88% 29.85 in 5.0 mi NNE 3.5 mph - 0.01 in Rain Light Rain
11:54 AM 59.0 °F 53.6 °F 82% 29.84 in 7.0 mi NNE 3.5 mph - 0.04 in Rain Rain
12:13 PM 60.8 °F 55.4 °F 82% 29.84 in 5.0 mi Calm Calm - 0.04 in Rain Rain
12:33 PM 60.8 °F 55.4 °F 82% 29.82 in 7.0 mi ENE 3.5 mph - 0.07 in Rain Light Rain
12:53 PM 62.6 °F 57.2 °F 82% 29.82 in 7.0 mi East 5.8 mph - 0.08 in Rain Light Rain
1:13 PM 62.6 °F 57.2 °F 82% 29.81 in 7.0 mi East 3.5 mph - N/A Rain Light Rain
1:33 PM 62.6 °F 57.2 °F 82% 29.80 in 7.0 mi East 3.5 mph - N/A Rain Light Rain
1:53 PM 62.6 °F 57.2 °F 82% 29.81 in 7.0 mi SSE 4.6 mph - N/A   Overcast
2:13 PM 60.8 °F 55.4 °F 82% 29.81 in 2.5 mi ESE 4.6 mph - N/A   Haze
2:33 PM 60.8 °F 55.4 °F 82% 29.80 in 3.0 mi East 6.9 mph - N/A   Haze
2:54 PM 59.0 °F 53.6 °F 82% 29.79 in 7.0 mi East 4.6 mph - N/A   Overcast
3:13 PM 60.8 °F 55.4 °F 82% 29.80 in 10.0 mi NE 4.6 mph - N/A   Overcast
3:34 PM 62.6 °F 57.2 °F 82% 29.78 in 10.0 mi East 4.6 mph - N/A   Overcast
3:53 PM 64.4 °F 59.0 °F 83% 29.78 in 10.0 mi East 3.5 mph - N/A   Overcast
4:13 PM 60.8 °F 55.4 °F 82% 29.79 in 10.0 mi SE 6.9 mph - N/A   Overcast
4:34 PM 60.8 °F 55.4 °F 82% 29.79 in 10.0 mi East 4.6 mph - N/A   Overcast
4:53 PM 60.8 °F 55.4 °F 82% 29.79 in 10.0 mi SE 3.5 mph - N/A   Overcast
5:13 PM 60.8 °F 55.4 °F 82% 29.78 in 10.0 mi Calm Calm - N/A   Overcast
5:34 PM 60.8 °F 55.4 °F 82% 29.78 in 10.0 mi Calm Calm - N/A   Overcast
5:53 PM 60.8 °F 55.4 °F 82% 29.78 in 5.0 mi Calm Calm - N/A   Haze
6:13 PM 60.8 °F 55.4 °F 82% 29.78 in 10.0 mi Calm Calm - N/A   Overcast
6:34 PM 62.6 °F 57.2 °F 82% 29.78 in 10.0 mi South 3.5 mph - N/A   Overcast
6:53 PM 62.6 °F 57.2 °F 82% 29.77 in 10.0 mi Calm Calm - N/A   Overcast
7:13 PM 62.6 °F 57.2 °F 82% 29.77 in 10.0 mi SSW 3.5 mph - N/A   Overcast
7:34 PM 62.6 °F 57.2 °F 82% 29.78 in 10.0 mi Calm Calm - N/A   Mostly Cloudy
7:53 PM 62.6 °F 57.2 °F 82% 29.77 in 10.0 mi South 3.5 mph - N/A   Scattered Clouds
8:13 PM 60.8 °F 55.4 °F 82% 29.78 in 7.0 mi Calm Calm - N/A   Mostly Cloudy
8:34 PM 62.6 °F 57.2 °F 82% 29.78 in 10.0 mi Calm Calm - N/A   Scattered Clouds
8:53 PM 64.4 °F 59.0 °F 83% 29.79 in 10.0 mi WNW 8.1 mph - N/A   Clear
9:13 PM 66.2 °F 60.8 °F 83% 29.79 in 10.0 mi NW 5.8 mph - N/A   Scattered Clouds
9:33 PM 66.2 °F 60.8 °F 83% 29.80 in 10.0 mi NW 5.8 mph - N/A   Clear
9:53 PM 64.4 °F 59.0 °F 83% 29.81 in 10.0 mi NW 10.4 mph 16.1 mph N/A   Clear
10:14 PM 64.4 °F 57.2 °F 77% 29.81 in 10.0 mi WNW 6.9 mph - N/A   Clear
10:33 PM 64.4 °F 57.2 °F 77% 29.82 in 10.0 mi NW 8.1 mph - N/A   Clear
10:53 PM 62.6 °F 57.2 °F 82% 29.82 in 10.0 mi NW 6.9 mph 16.1 mph N/A   Clear
11:14 PM 62.6 °F 55.4 °F 77% 29.82 in 10.0 mi NW 8.1 mph 17.3 mph N/A   Clear
11:33 PM 62.6 °F 55.4 °F 77% 29.83 in 10.0 mi WNW 6.9 mph - N/A   Clear
11:53 PM 62.6 °F 57.2 °F 82% 29.84 in 10.0 mi West 4.6 mph - N/A   Clear